Rbgn^[z[y[W
メイン
   新天体発見情報
     Comet C/2017 S6 (Catalina)
投稿するにはまず登録を

スレッド表示 | 新しいものから 前のトピック | 次のトピック | 下へ
投稿者 スレッド
佐藤裕久
投稿日時: 2017-10-16 7:39
モデレータ
登録日: 2005-6-12
居住地: 日本
投稿: 1822
オンライン
Comet C/2017 S6 (Catalina)

9月30日、G. J. Leonardは、0.68-m Schmid 望遠鏡で得たCatalina Sky Survey CCD画像から小惑星状
天体を発見した。
小惑星センターのPCCP webpageに公表後、K. SarneczkyとO. Hanyecz (Konkoly天文台, Piszkesteto,
ハンガリー, 0.60-m Schmidt望遠鏡; 10月1.1日UT、フィルターなし120秒5枚スタック画像から明らか
に彗星状でコマは12"で南西側にわずかに非対称となっている。6".0の円形範囲で測定したこの彗星の
R光度は18.8等であった)や佐藤英貴氏(東京都文京区, iTelescope Sierra Remote天文台,0.61-m 
f/6.5 アストログラフ, Auberry, カリフォルニア州, 遠隔操作; 10月1.51日、60秒露出8枚スタック
では強い集光の15" のコマがあるが尾はない。8".8の円形範囲で測定したこの彗星のw-バンド光度は
18.0 等であった)やCCD位置観測者によって彗星状と観測された。

発見位置は次のとおり、

     2017 UT             R.A. (2000) Decl.       Mag.   Observer
     Sept.30.41404    7 01 10.39   +47 10 13.4   17.9   Leonard
          30.41904    7 01 10.26   +47 10 18.3   17.7     "
          30.42404    7 01 10.03   +47 10 22.9   17.8     "
          30.42905    7 01 09.91   +47 10 28.5   17.9     "
          30.46280    7 01 08.79   +47 11 06.8   17.8     "
          30.46595    7 01 08.57   +47 11 10.6            "
          30.46888    7 01 08.49   +47 11 13.7            "
          30.47189    7 01 08.42   +47 11 16.6            "
          30.48759    7 01 07.97   +47 11 34.7            "
          30.49129    7 01 07.82   +47 11 38.5            "
          30.49508    7 01 07.60   +47 11 43.8            "
          30.49885    7 01 07.52   +47 11 49.0   17.8     "

放物線軌道要素と位置推算表は次のとおり、

Orbital elements:
    C/2017 S6 (Catalina)
T 2018 Feb. 27.00005 TT                                 MPCW
q   1.5421250            (2000.0)            P               Q
                   Peri.  134.75331     +0.93849676     -0.00872967
                   Node   130.88589     -0.23790169     -0.74088255
e   1.0            Incl.  152.83366     +0.25025310     -0.67157787
From 59 observations 2017 Sept. 30-Oct. 7.

Ephemeris:
    C/2017 S6 (Catalina)
Date    TT    R. A. (2000) Decl.     Delta      r     Elong.  Phase   m1
2017 09 08    07 03 03.1 +41 59 21   2.9896  2.7141    64.6    19.6  19.2
...
2017 09 23    07 03 47.1 +45 06 08   2.5691  2.5692    78.7    22.5  18.6
...
2017 10 01    07 00 50.5 +47 21 07   2.3391  2.4928    86.8    23.6  18.3
...
2017 10 07    06 56 08.8 +49 23 16   2.1671  2.4359    93.2    24.2  18.0
2017 10 08    06 55 05.4 +49 45 35   2.1387  2.4265    94.2    24.2  18.0
2017 10 09    06 53 56.6 +50 08 30   2.1103  2.4170    95.3    24.3  18.0
...
2017 10 15    06 44 45.5 +52 38 57   1.9427  2.3608   102.0    24.4  17.7
...
2017 10 23    06 23 44.2 +56 34 00   1.7301  2.2868   111.2    23.9  17.3
...
2017 11 07    04 48 38.0 +64 17 37   1.3974  2.1515   127.7    21.4  16.6

(CBET 4437、MPEC 2017-T37)
スレッド表示 | 新しいものから 前のトピック | 次のトピック | トップ

投稿するにはまず登録を
 
© 1999-2013 Tsutomu Seki.